Location: Long Sault Conservation Area
(44.0496°N, 78.7419°W)
Time: 07:28:02
(UTC-05:00)

Daily predictions for brighter satellites

Satellite Brightness Start Highest point End
(mag) Time Altitude Azimuth Time Altitude Azimuth Time Altitude Azimuth
Cosmos 2218 Rocket 4.2 16:57:24 10° N 17:03:30 49° ENE 17:09:29 10° SSE
Cosmos 2251 Rocket 3.6 16:59:47 10° NNW 17:05:05 57° ENE 17:10:18 10° SE
Cosmos 1812 3.7 17:03:29 10° SSE 17:06:48 28° E 17:10:08 10° NNE
Cosmos 1295 Rocket 4.4 17:01:01 10° N 17:07:10 78° E 17:13:14 10° SSE
Cosmos 2181 Rocket 4.1 17:01:58 10° S 17:08:19 81° E 17:14:48 10° N
SL-27 R/B 2.5 17:05:53 10° NNW 17:09:34 79° ENE 17:13:12 10° SSE
CZ-2C R/B 3.7 17:06:29 10° NNE 17:10:58 86° ESE 17:15:28 10° SSW
Okean 1 4.2 17:15:28 10° SSE 17:18:59 29° E 17:22:31 10° NNE
Cosmos 1536 4.1 17:16:00 10° NNW 17:19:55 47° W 17:23:50 10° SSW
Cosmos 1844 3.7 17:14:46 10° SSW 17:20:18 75° ESE 17:25:52 10° NNE
Abrixas 3.0 17:17:37 10° WNW 17:20:28 41° NNE 17:23:15 10° E
Cosmos 1346 Rocket 3.8 17:26:41 10° SSE 17:29:54 25° E 17:33:06 10° NE
Cosmos 375 4.4 17:26:24 10° NNW 17:31:02 61° NE 17:34:52 10° SE
ISS -2.2 17:29:28 10° W 17:32:33 35° NNW 17:35:07 13° NE
Cosmos 1544 Rocket 3.6 17:28:21 10° N 17:32:50 89° E 17:37:19 10° S
USA 116 4.5 17:29:39 10° NNE 17:35:04 71° ESE 17:40:11 10° S
PAYLOAD A 4.2 17:30:39 10° S 17:35:28 74° WSW 17:40:31 10° NNW
Cosmos 2278 Rocket 2.3 17:30:01 10° S 17:35:34 61° ESE 17:41:10 10° NNE
COSMO-SKYMED 1 3.7 17:33:26 10° NE 17:36:59 24° E 17:40:30 10° SSE
Cosmos 1975 Rocket 4.2 17:34:30 10° SSW 17:38:38 45° WNW 17:42:49 10° N
SMAP 3.0 17:35:21 10° SSE 17:39:59 81° ENE 17:44:41 10° NNW
USA 234 3.3 17:34:55 11° NE 17:41:20 84° SE 17:47:53 10° SW
CZ-4 R/B 4.4 17:42:41 10° SSE 17:46:47 66° ENE 17:50:56 10° N
BREEZE M DEB (TANK) 3.1 17:44:32 10° WNW 17:47:29 47° NNE 17:53:28 14° E
SL-8 R/B 3.7 17:44:21 10° WSW 17:49:07 82° SSE 17:52:28 20° ENE
Genesis I 3.1 17:46:19 10° NNW 17:50:16 78° NE 17:54:10 10° SE
NOSS 3-4 (A) 4.3 17:45:26 10° NNW 17:51:45 37° NE 17:57:35 13° E
NOSS 3-4 (C) 4.3 17:45:32 10° NNW 17:51:50 36° NE 17:57:35 14° E
Cosmos 1536 Rocket 3.5 17:50:44 10° S 17:55:12 85° E 17:59:43 10° N
Nadezhda 3 Rocket 4.2 17:50:48 10° SSE 17:56:44 49° E 18:02:44 10° NNE
Cosmos 1833 Rocket 3.0 17:51:26 10° NNW 17:56:50 44° ENE 18:02:11 10° SE
Cosmos 1025 Rocket 4.2 17:56:04 10° SE 17:59:27 22° E 17:59:27 22° E
Cosmos 2082 Rocket 2.3 17:54:04 10° NNW 17:59:37 53° ENE 18:05:10 10° SE
NOSS 3-3 (A) 4.0 17:53:37 10° SSW 17:59:49 85° SE 18:05:35 15° NE
NOSS 3-3 (C) 4.0 17:53:43 10° SSW 17:59:55 84° SE 18:05:40 15° NE
Cosmos 921 Rocket 3.6 17:57:53 10° SSE 18:01:45 35° E 18:03:30 25° NE
YAOGAN 1 3.1 17:59:29 10° S 18:03:46 61° W 18:08:05 10° NNW
Cosmos 1238 Rocket 3.4 18:01:00 10° SSW 18:03:49 41° WNW 18:06:50 10° N
Meteor 2-21 Rocket 4.5 17:57:53 10° N 18:04:00 58° ENE 18:10:02 10° SSE
SPOT 3 Rocket 4.2 17:59:22 10° S 18:04:28 59° WSW 18:09:36 10° NNW
MSX 3.8 17:58:57 10° SSE 18:04:42 89° ENE 18:10:30 10° NNW
Cosmos 1975 3.0 18:00:43 10° N 18:04:47 78° W 18:08:49 10° S
Cosmos 1743 3.1 18:01:31 10° N 18:05:13 40° ENE 18:08:51 10° SSE
CZ-4 R/B 3.0 18:01:27 10° SSW 18:05:21 39° W 18:09:15 10° NNW
GRACE-1 4.5 18:04:07 10° SSE 18:06:18 37° ESE 18:06:18 37° ESE
ATLAS 2AS CENTAUR R/B 4.0 17:59:20 10° NW 18:07:01 50° WSW 18:14:12 10° S
COSMOS 2487 2.4 18:05:45 10° NNW 18:09:22 89° WSW 18:12:56 10° SSE
Cosmos 1500 3.2 18:06:06 10° N 18:09:56 84° W 18:13:47 10° S
GEOS 3 Rocket 3.8 18:06:32 16° ESE 18:10:26 47° NE 18:15:19 10° NNW
Cosmos 1484 Rocket 2.5 18:08:27 10° SSE 18:12:10 74° ENE 18:15:54 10° N
CZ-2C R/B 3.5 18:08:12 10° S 18:13:03 49° W 18:18:03 10° NNW
MONITOR-E 4.4 18:10:56 10° S 18:14:07 76° WSW 18:17:20 10° NNW
Meteor 1-28 Rocket 3.9 18:15:53 33° ESE 18:15:53 33° ESE 18:19:04 10° SSE
Tiangong 1 1.7 18:16:50 10° SW 18:19:42 39° SSE 18:19:54 38° SSE
Meteor 1-13 Rocket 4.2 18:15:13 10° S 18:20:51 69° E 18:26:39 10° NNE
SKYMED 2 3.4 18:21:59 17° NNE 18:25:16 78° ESE 18:29:36 10° S
IDEFIX/ARIANE 42P 4.1 18:24:45 10° SSW 18:29:32 37° W 18:34:20 10° NNW
FALCON 9 R/B 4.1 18:05:25 10° WSW 18:30:28 51° S 18:35:32 22° ESE
BREEZE-M R/B 4.0 18:22:22 10° WSW 18:32:37 81° NNW 18:34:45 39° ENE
Meteor 2-9 Rocket 4.1 18:31:43 10° N 18:37:05 54° ENE 18:42:18 10° SSE
Meteor 2-4 Rocket 3.6 18:32:00 10° S 18:37:12 54° E 18:38:55 38° NE
Okean 1-7 Rocket 3.5 18:32:46 10° S 18:37:17 88° E 18:39:56 25° N
Cosmos 1190 Rocket 4.3 18:37:17 10° N 18:41:50 44° NE 18:41:50 44° NE
Cosmos 1934 Rocket 3.9 18:40:30 10° N 18:46:41 69° E 18:52:57 10° SSE
Cosmos 1535 Rocket 4.4 18:44:02 10° N 18:50:23 90° W 18:56:37 10° S
NOSS 2-1 (D) 3.3 18:49:55 10° SW 18:53:30 78° SW 18:53:30 78° SW
NOSS 2-1 (C) 3.4 18:50:36 10° SW 18:54:09 76° SSW 18:54:09 76° SSW
Timation 1 Rocket 4.4 18:55:52 10° SSW 19:01:49 74° WNW 19:04:20 37° NNE
Meteor 2-8 Rocket 4.3 18:58:19 10° S 19:04:22 76° E 19:06:35 42° NNE
Cosmos 2297 4.3 19:02:14 10° SW 19:07:44 53° WNW 19:10:21 30° N
BREEZE M DEB (TANK) 3.0 19:03:30 10° WSW 19:08:45 55° WSW 19:08:45 55° WSW
ISS -0.4 19:07:04 10° NW 19:07:47 14° NW 19:07:47 14° NW
NOSS 2-1 (E) 4.2 19:09:14 10° SW 19:12:13 49° WSW 19:12:13 49° WSW
COSMO-SKYMED 1 4.2 19:10:34 18° NNW 19:13:11 33° WNW 19:17:03 10° SW
Cosmos 1821 Rocket 4.4 19:09:43 10° NNW 19:15:41 59° W 19:21:38 10° S
Cosmos 2278 Rocket 4.1 19:15:35 10° WSW 19:20:05 24° NW 19:23:40 14° N
USA 234 4.1 19:22:16 35° NNE 19:24:00 41° NNW 19:30:01 10° W
Cosmos 1605 Rocket 3.9 19:19:58 10° N 19:26:20 86° W 19:32:31 10° S
CZ-3B DEB 3.7 19:23:11 10° W 19:28:34 48° N 19:31:38 38° NNE
Cosmos 2056 Rocket 4.0 19:28:16 10° SSW 19:32:40 56° WSW 19:32:40 56° WSW
Cosmos 1833 Rocket 4.5 19:35:45 10° NW 19:40:33 29° WSW 19:45:19 10° SSW
NOSS 3-4 (A) 4.1 19:36:11 10° NW 19:43:07 63° WSW 19:45:08 47° S
NOSS 3-4 (C) 4.1 19:36:17 10° NW 19:43:13 64° WSW 19:45:09 48° S
Cosmos 2082 Rocket 4.3 19:38:53 10° NW 19:43:19 24° WSW 19:47:45 10° SSW
